Tracking 18840 objects as of 18-November-2017
HD Live streaming from Space Station
objects crossing your sky now

FENGYUN 1C DEB

Track FENGYUN 1C DEB now!
10-day predictions


NORAD ID: 30650
Int'l Code: 1999-025APH
Perigee: 832.2 km
Apogee: 954.5 km
Inclination: 99.1 °
Period: 102.7 minutes
Semi major axis: 7264 km
RCS: 0.0287 m2 (small)
Launch date: May 10, 1999
Source: People's Republic of China (PRC)
Launch site: Taiyaun Space Center, China (TSC)

Note: This is SATELLITE DEBRIS
aabbcc
Your satellite tracking list
Your tracking list is empty




NASA's NSSDC Master Catalog

Two Line Element Set (TLE):
1 30650U 99025APH 17321.84481084 +.00000848 +00000-0 +56521-3 0  9992
2 30650 099.1252 274.0285 0084189 074.0605 339.5042 14.02193215549017
Source of the keplerian elements: AFSPC